Fayetteville, AR

3:50 AM CDT on April 25, 2018 (GMT -0500)
Drake

Weather History for KFYV - January, 2014

Change the Weather History Date:

Sunday, January 5, 2014

  Actual Average Record
Temperature  
Mean Temperature 22 °F 35 °F  
Max Temperature 38 °F 46 °F 71 °F (1956)
Min Temperature 5 °F 25 °F -3 °F (1972)
Degree Days  
Heating Degree Days 43 30  
Month to date heating degree days 181 150  
Since 1 July heating degree days 2008 1833  
Moisture  
Dew Point 18 °F    
Average Humidity 82    
Maximum Humidity 100    
Minimum Humidity 63    
Precipitation  
Precipitation 0.49 in 0.10 in 0.84 in (2005)
Month to date precipitation 0.61 0.47  
Year to date precipitation 0.61 0.47  
Sea Level Pressure  
Sea Level Pressure 30.06 in    
Wind  
Wind Speed 12 mph (NNW)    
Max Wind Speed 23 mph    
Max Gust Speed 30 mph    
Visibility 5 miles    
Events Rain , Snow    
T = Trace of Precipitation, MM = Missing Value Source: NWS Daily Summary

Daily Weather History Graph

Daily Weather History Graph

Search for Another Location

Airport or City:

Astronomy

Jan. 05, 2014 Rise Set
Actual Time 7:27 AM CST 5:16 PM CST
Civil Twilight 6:59 AM CST 5:45 PM CST
Nautical Twilight 6:27 AM CST 6:16 PM CST
Astronomical Twilight 5:56 AM CST 6:48 PM CST
Moon 10:19 AM CST (1/5) 10:34 PM CST (1/5)
Length of Visible Light 10h 45m
Length of Day
9h 48m
Waxing Crescent, 25% of the Moon is Illuminated
Jan 5
Waxing Crescent
Jan 7
First Quarter
Jan 15
Full
Jan 23
Last Quarter
Jan 30
New

Hourly Weather History & Observations

Time (CST) Temp. Windchill Dew Point Humidity Pressure Visibility Wind Dir Wind Speed Gust Speed Precip Events Conditions
12:11 AM 37.4 °F 34.9 °F 37.4 °F 100% 29.82 in 4.0 mi Variable 3.5 mph - 0.01 in Rain Light Rain
12:53 AM 37.9 °F 35.5 °F 37.9 °F 100% 29.81 in 4.0 mi NE 3.5 mph - 0.02 in Rain Light Rain
1:00 AM 37.4 °F 34.9 °F 37.4 °F 100% 29.80 in 3.0 mi Variable 3.5 mph - 0.00 in Rain Light Rain
1:24 AM 37.4 °F 34.9 °F 37.4 °F 100% 29.79 in 2.5 mi Variable 3.5 mph - 0.02 in Rain Light Rain
1:40 AM 37.4 °F 33.8 °F 37.4 °F 100% 29.78 in 3.0 mi ENE 4.6 mph - 0.03 in Rain Light Rain
1:53 AM 37.9 °F 35.5 °F 37.0 °F 97% 29.78 in 3.0 mi NE 3.5 mph - 0.05 in Rain Light Rain
2:24 AM 37.4 °F - 37.4 °F 100% 29.77 in 3.0 mi Calm Calm - 0.09 in Rain Rain
2:53 AM 37.0 °F 31.0 °F 37.0 °F 100% 29.79 in 4.0 mi North 8.1 mph - 0.13 in Rain Light Rain
3:53 AM 36.0 °F 29.0 °F 35.1 °F 97% 29.81 in 5.0 mi North 9.2 mph - 0.04 in Rain Light Rain
4:40 AM 30.2 °F 18.5 °F 28.4 °F 93% 29.80 in 6.0 mi NNW 17.3 mph 23.0 mph 0.02 in Rain Light Freezing Rain
4:53 AM 30.0 °F 18.3 °F 28.0 °F 92% 29.82 in 4.0 mi NNW 17.3 mph 23.0 mph 0.06 in Rain Light Freezing Rain
5:53 AM 26.1 °F 13.6 °F 23.0 °F 88% 29.87 in 5.0 mi NNW 16.1 mph 21.9 mph 0.14 in Rain Light Freezing Rain
5:56 AM 24.8 °F 11.5 °F 23.0 °F 93% 29.85 in 6.0 mi NNW 17.3 mph 21.9 mph 0.00 in Snow Light Snow
6:20 AM 23.0 °F 10.1 °F 21.2 °F 93% 29.85 in 1.0 mi NNW 15.0 mph - 0.02 in Snow Light Snow
6:53 AM 21.0 °F 7.6 °F 18.0 °F 88% 29.91 in 1.2 mi North 15.0 mph 27.6 mph 0.03 in Snow Light Snow
7:53 AM 19.0 °F 5.6 °F 16.0 °F 88% 29.95 in 1.0 mi NNW 13.8 mph 21.9 mph 0.01 in Snow Light Snow
8:53 AM 17.1 °F 4.3 °F 14.0 °F 88% 30.01 in 1.2 mi North 11.5 mph 23.0 mph 0.01 in Snow Light Snow
9:22 AM 17.6 °F 5.7 °F 12.2 °F 79% 29.99 in 5.0 mi North 10.4 mph 20.7 mph 0.00 in Snow Light Snow
9:53 AM 16.0 °F 0.6 °F 12.0 °F 84% 30.04 in 2.0 mi NNW 16.1 mph 24.2 mph 0.00 in Snow Light Snow
10:53 AM 16.0 °F 2.9 °F 12.0 °F 84% 30.07 in 1.2 mi North 11.5 mph 23.0 mph 0.00 in Snow Light Snow
11:53 AM 16.0 °F 1.1 °F 10.0 °F 77% 30.09 in 2.5 mi North 15.0 mph 27.6 mph 0.00 in Snow Light Snow
12:53 PM 16.0 °F 0.6 °F 10.9 °F 81% 30.09 in 2.0 mi NW 16.1 mph - 0.00 in Snow Light Snow
1:53 PM 17.1 °F 2.0 °F 12.0 °F 81% 30.12 in 3.0 mi NNW 16.1 mph 24.2 mph 0.00 in Snow Light Snow
2:53 PM 17.1 °F 2.0 °F 10.9 °F 77% 30.17 in 3.0 mi NNW 16.1 mph 24.2 mph 0.00 in Snow Light Snow
3:41 PM 15.8 °F -0.6 °F 10.4 °F 79% 30.18 in 1.8 mi NW 18.4 mph 24.2 mph 0.00 in Snow Light Snow
3:53 PM 15.1 °F 0.5 °F 10.9 °F 84% 30.23 in 2.5 mi NNW 13.8 mph - 0.00 in Snow Light Snow
4:00 PM 15.8 °F -0.2 °F 10.4 °F 79% 30.20 in 4.0 mi NNW 17.3 mph 24.2 mph 0.00 in Snow Light Snow
4:53 PM 14.0 °F -3.9 °F 9.0 °F 80% 30.29 in 4.0 mi NW 20.7 mph 24.2 mph 0.00 in Snow Light Snow
5:53 PM 12.9 °F -2.2 °F 6.1 °F 74% 30.35 in 10.0 mi NNW 13.8 mph 24.2 mph 0.00 in   Overcast
6:53 PM 10.9 °F -5.9 °F 3.9 °F 73% 30.41 in 10.0 mi North 16.1 mph 25.3 mph N/A   Mostly Cloudy
7:04 PM 10.4 °F -3.3 °F 3.2 °F 73% 30.35 in 10.0 mi North 10.4 mph 20.7 mph N/A   Scattered Clouds
7:53 PM 9.0 °F -2.2 °F 1.0 °F 70% 30.46 in 10.0 mi NNW 6.9 mph - N/A   Clear
8:53 PM 9.0 °F -5.1 °F -0.9 °F 64% 30.50 in 10.0 mi North 10.4 mph - N/A   Overcast
9:53 PM 8.1 °F -3.2 °F -2.0 °F 64% 30.52 in 10.0 mi North 6.9 mph - N/A   Clear
10:53 PM 7.0 °F -3.3 °F -2.9 °F 64% 30.53 in 10.0 mi North 5.8 mph - N/A   Clear
11:53 PM 5.0 °F - -4.0 °F 66% 30.53 in 10.0 mi Calm Calm - N/A   Clear